Amarillo, TX

8:13 PM CST on November 22, 2019 (GMT -0600)
Amarillo International

Weather History for KAMA - May, 2019

Change the Weather History Date:

Thursday, May 30, 2019

  Actual Average Record
Temperature  
Mean Temperature 62 °F 70 °F  
Max Temperature 77 °F 83 °F 101 °F (1998)
Min Temperature 47 °F 56 °F 42 °F (1947)
Degree Days  
Heating Degree Days 3 1  
Month to date heating degree days 119 82  
Since 1 July heating degree days 4102 4170  
Cooling Degree Days 0 6  
Month to date cooling degree days 45 98  
Year to date cooling degree days 61 119  
Growing Degree Days 12 (Base 50)    
Moisture  
Dew Point 49 °F    
Average Humidity 66    
Maximum Humidity 93    
Minimum Humidity 38    
Precipitation  
Precipitation 0.31 in 0.10 in 2.11 in (1961)
Month to date precipitation 3.66 2.18  
Year to date precipitation 7.75 6.25  
Snow  
Snow 0.00 in 0.00 in - ()
Month to date snowfall 0.0 0.2  
Since 1 July snowfall 8.1 17.8  
Snow Depth 0.00 in    
Sea Level Pressure  
Sea Level Pressure 30.01 in    
Wind  
Wind Speed 7 mph (North)    
Max Wind Speed 29 mph    
Max Gust Speed 36 mph    
Visibility 10 miles    
Events Rain , Thunderstorm    
T = Trace of Precipitation, MM = Missing Value Source: NWS Daily Summary

Daily Weather History Graph

Daily Weather History Graph

Search for Another Location

Airport or City:

Astronomy

May. 30, 2019 Rise Set
Actual Time 6:34 AM CDT 8:54 PM CDT
Civil Twilight 6:05 AM CDT 9:24 PM CDT
Nautical Twilight 5:29 AM CDT 9:59 PM CDT
Astronomical Twilight 4:50 AM CDT 10:39 PM CDT
Moon 4:29 AM CDT (5/30) 5:14 PM CDT (5/30)
Length of Visible Light 15h 18m
Length of Day
14h 20m
Waning Crescent, 15% of the Moon is Illuminated
May 30
Waning Crescent
Jun 3
New
Jun 10
First Quarter
Jun 17
Full
Jun 25
Last Quarter

Hourly Weather History & Observations

Time (CDT) Temp. Dew Point Humidity Pressure Visibility Wind Dir Wind Speed Gust Speed Precip Events Conditions
12:53 AM 52.0 °F 46.0 °F 80% 29.96 in 10.0 mi NE 4.6 mph - N/A   Clear
1:53 AM 52.0 °F 45.0 °F 77% 29.94 in 10.0 mi ENE 6.9 mph - N/A   Clear
2:53 AM 53.1 °F 45.0 °F 74% 29.95 in 10.0 mi ESE 3.5 mph - N/A   Clear
3:53 AM 50.0 °F 45.0 °F 83% 29.94 in 10.0 mi NE 5.8 mph - N/A   Clear
4:53 AM 48.9 °F 45.0 °F 86% 29.96 in 10.0 mi NNW 5.8 mph - N/A   Clear
5:53 AM 46.9 °F 44.1 °F 90% 29.99 in 10.0 mi NW 5.8 mph - N/A   Clear
6:53 AM 48.0 °F 45.0 °F 89% 30.00 in 10.0 mi WNW 3.5 mph - N/A   Clear
7:53 AM 54.0 °F 48.9 °F 83% 30.02 in 10.0 mi NNW 5.8 mph - N/A   Clear
8:53 AM 57.9 °F 50.0 °F 75% 30.04 in 10.0 mi North 3.5 mph - N/A   Clear
9:53 AM 64.0 °F 50.0 °F 60% 30.05 in 10.0 mi North 3.5 mph - N/A   Clear
10:53 AM 64.9 °F 45.0 °F 48% 30.05 in 10.0 mi Calm Calm - N/A   Clear
11:53 AM 68.0 °F 46.9 °F 47% 30.05 in 10.0 mi ESE 4.6 mph - N/A   Clear
12:53 PM 70.0 °F 48.0 °F 46% 30.04 in 10.0 mi SSE 5.8 mph - N/A   Clear
1:53 PM 71.1 °F 48.0 °F 44% 30.02 in 10.0 mi SW 5.8 mph - N/A   Clear
2:53 PM 73.0 °F 46.9 °F 39% 29.99 in 10.0 mi North - - N/A   Clear
3:53 PM 75.0 °F 50.0 °F 41% 29.97 in 10.0 mi South 11.5 mph - N/A   Clear
4:53 PM 75.9 °F 48.9 °F 38% 29.94 in 10.0 mi SE 5.8 mph - N/A   Scattered Clouds
5:53 PM 75.9 °F 48.9 °F 38% 29.92 in 10.0 mi SE 6.9 mph - N/A   Scattered Clouds
6:53 PM 75.0 °F 48.0 °F 38% 29.91 in 10.0 mi SSE 11.5 mph 18.4 mph N/A   Mostly Cloudy
7:53 PM 72.0 °F 48.0 °F 43% 29.92 in 10.0 mi SE 9.2 mph - N/A   Partly Cloudy
8:53 PM 69.1 °F 50.0 °F 51% 29.94 in 10.0 mi SE 12.7 mph - N/A   Clear
9:33 PM 62.1 °F 51.1 °F 67% 30.10 in 10.0 mi NW 26.5 mph 35.7 mph N/A Thunderstorm Mostly Cloudy
9:53 PM 59.0 °F 52.0 °F 78% 30.02 in 10.0 mi NW 18.4 mph 32.2 mph 0.00 in Rain , Thunderstorm Light Rain
10:11 PM 57.0 °F 54.0 °F 89% 30.13 in 4.0 mi WNW 21.9 mph 27.6 mph 0.07 in Rain Rain
10:35 PM 57.0 °F 53.1 °F 87% 30.15 in 10.0 mi NW 18.4 mph 27.6 mph 0.14 in Rain , Thunderstorm Light Rain
10:53 PM 55.9 °F 53.1 °F 90% 30.08 in 6.0 mi WNW 12.7 mph 23.0 mph 0.18 in Rain , Thunderstorm Rain
11:25 PM 55.9 °F 53.1 °F 90% 30.17 in 5.0 mi North 13.8 mph 19.6 mph 0.11 in Rain Rain
11:44 PM 55.9 °F 53.1 °F 90% 30.14 in 10.0 mi North 11.5 mph - 0.13 in   Overcast
11:53 PM 57.0 °F 53.1 °F 87% 30.04 in 10.0 mi NW 8.1 mph - 0.13 in   Overcast